Weather History for KBBG - February, 2014

Change the Weather History Date:

Thursday, February 6, 2014

  Actual Average (KHRO) Record (KHRO)
Temperature  
Mean Temperature 10 °F 39 °F  
Max Temperature 15 °F 49 °F 72 °F (1904)
Min Temperature 5 °F 28 °F -7 °F (1959)
Degree Days  
Heating Degree Days 55 26  
Month to date heating degree days 161  
Since 1 July heating degree days 2647  
Cooling Degree Days 0 0  
Month to date cooling degree days 0  
Year to date cooling degree days 0  
Moisture  
Dew Point -2 °F    
Average Humidity 56    
Maximum Humidity 72    
Minimum Humidity 41    
Precipitation  
Precipitation 0.00 in 0.09 in 1.49 in (1999)
Month to date precipitation 0.52  
Year to date precipitation 3.08  
Snow  
Snow 0.00 in 0.10 in 6.50 in (2002)
Month to date snowfall 1.0  
Since 1 July snowfall 7.0  
Snow Depth -    
Sea Level Pressure  
Sea Level Pressure 30.49 in    
Wind  
Wind Speed 8 mph (NNW)    
Max Wind Speed 13 mph    
Max Gust Speed -    
Visibility 10 miles    
Events      
T = Trace of Precipitation, MM = Missing Value Source: NWS Daily Summary

Daily Weather History Graph

Daily Weather History Graph

Search for Another Location

Airport or City:

Trip Planner

Search our weather history database for the weather conditions in past years. The results will help you decide how hot, cold, wet, or windy it might be!

Date:

Astronomy

Feb. 06, 2014 Rise Set
Actual Time 7:10 AM CST 5:44 PM CST
Civil Twilight 6:43 AM CST 6:11 PM CST
Nautical Twilight 6:12 AM CST 6:41 PM CST
Astronomical Twilight 5:42 AM CST 7:11 PM CST
Moon 11:17 AM CST (2/6) 12:26 AM CST (2/6)
Length of Visible Light 11h 27m
Length of Day
10h 34m
Waxing Crescent, 49% of the Moon is Illuminated
Feb 6
Waxing Crescent
Feb 6
First Quarter
Feb 14
Full
Feb 22
Last Quarter
Mar 1
New

Hourly Weather History & Observations

Time (CST) Temp. Windchill Dew Point Humidity Pressure Visibility Wind Dir Wind Speed Gust Speed Precip Events Conditions
12:15 AM 6.8 °F -6.9 °F - N/A% 30.52 in 10.0 mi NNW 9.2 mph - N/A   Partly Cloudy
12:35 AM 6.8 °F -5.9 °F - N/A% 30.52 in 10.0 mi NNW 8.1 mph - N/A   Clear
12:55 AM 6.8 °F -7.8 °F - N/A% 30.52 in 10.0 mi NNW 10.4 mph - N/A   Scattered Clouds
1:15 AM 6.8 °F -9.3 °F - N/A% 30.52 in 10.0 mi NNW 12.7 mph - N/A   Mostly Cloudy
1:35 AM 6.8 °F -7.8 °F - N/A% 30.51 in 10.0 mi NNW 10.4 mph - N/A   Overcast
1:55 AM 6.8 °F -8.6 °F - N/A% 30.52 in 10.0 mi North 11.5 mph - N/A   Overcast
2:15 AM 6.8 °F -6.9 °F - N/A% 30.52 in 10.0 mi NNW 9.2 mph - N/A   Overcast
2:35 AM 6.8 °F -7.8 °F - N/A% 30.52 in 10.0 mi NNW 10.4 mph - N/A   Overcast
2:55 AM 6.8 °F -6.9 °F - N/A% 30.52 in 10.0 mi North 9.2 mph - N/A   Overcast
3:15 AM 6.8 °F -6.9 °F - N/A% 30.53 in 10.0 mi North 9.2 mph - N/A   Overcast
3:35 AM 5.0 °F -10.8 °F - N/A% 30.53 in 10.0 mi NNW 11.5 mph - N/A   Overcast
3:55 AM 5.0 °F -9.1 °F - N/A% 30.52 in 10.0 mi NNW 9.2 mph - N/A   Overcast
4:15 AM 5.0 °F -8.1 °F - N/A% 30.53 in 10.0 mi NNW 8.1 mph - N/A   Overcast
4:35 AM 5.0 °F -8.1 °F - N/A% 30.52 in 10.0 mi NNW 8.1 mph - N/A   Overcast
4:55 AM 5.0 °F -8.1 °F - N/A% 30.52 in 10.0 mi NNW 8.1 mph - N/A   Overcast
5:15 AM 5.0 °F -6.9 °F - N/A% 30.54 in 10.0 mi NNW 6.9 mph - N/A   Overcast
5:35 AM 5.0 °F -4.1 °F - N/A% 30.55 in 10.0 mi NNW 4.6 mph - N/A   Overcast
5:55 AM 5.0 °F -6.9 °F - N/A% 30.56 in 10.0 mi NNW 6.9 mph - N/A   Overcast
6:15 AM 5.0 °F -9.1 °F - N/A% 30.56 in 10.0 mi NNW 9.2 mph - N/A   Overcast
6:35 AM 5.0 °F -6.9 °F - N/A% 30.55 in 10.0 mi NNW 6.9 mph - N/A   Overcast
6:49 AM 5.0 °F -6.9 °F -2.2 °F 72% 30.56 in 10.0 mi NW 6.9 mph - N/A   Overcast
7:46 AM 6.8 °F -5.9 °F -2.2 °F 67% 30.56 in 10.0 mi NNW 8.1 mph - N/A   Overcast
8:47 AM 6.8 °F -5.9 °F -2.2 °F 67% 30.57 in 10.0 mi NNW 8.1 mph - N/A   Mostly Cloudy
9:45 AM 6.8 °F -4.8 °F -2.2 °F 67% 30.56 in 10.0 mi North 6.9 mph - N/A   Overcast
10:48 AM 8.6 °F -4.7 °F -2.2 °F 62% 30.54 in 10.0 mi NNW 9.2 mph - N/A   Overcast
11:45 AM 10.4 °F -1.5 °F -4.0 °F 52% 30.53 in 10.0 mi North 8.1 mph - N/A   Overcast
12:45 PM 12.2 °F 1.7 °F -4.0 °F 48% 30.50 in 10.0 mi North 6.9 mph - N/A   Overcast
1:45 PM 14.0 °F 5.1 °F -2.2 °F 49% 30.47 in 10.0 mi NNW 5.8 mph - N/A   Overcast
2:51 PM 15.8 °F 6.1 °F -2.2 °F 45% 30.46 in 10.0 mi NNW 6.9 mph - N/A   Mostly Cloudy
3:46 PM 15.8 °F 8.6 °F -4.0 °F 41% 30.45 in 10.0 mi NNW 4.6 mph - N/A   Scattered Clouds
4:45 PM 15.8 °F 7.2 °F -4.0 °F 41% 30.44 in 10.0 mi North 5.8 mph - N/A   Partly Cloudy
5:50 PM 14.0 °F 6.5 °F -2.2 °F 49% 30.43 in 10.0 mi North 4.6 mph - N/A   Partly Cloudy
6:45 PM 12.2 °F 4.3 °F -0.4 °F 57% 30.42 in 10.0 mi North 4.6 mph - N/A   Partly Cloudy
7:45 PM 10.4 °F 2.2 °F -2.2 °F 57% 30.44 in 10.0 mi North 4.6 mph - N/A   Partly Cloudy
8:45 PM 8.6 °F - -0.4 °F 67% 30.45 in 10.0 mi Calm Calm - N/A   Partly Cloudy
9:15 PM 8.6 °F 0.1 °F - N/A% 30.44 in 10.0 mi NNW 4.6 mph - N/A   Overcast
9:35 PM 8.6 °F 0.1 °F - N/A% 30.43 in 10.0 mi NNW 4.6 mph - N/A   Overcast
9:55 PM 8.6 °F -1.3 °F - N/A% 30.43 in 10.0 mi NNW 5.8 mph - N/A   Overcast
10:15 PM 8.6 °F 0.1 °F - N/A% 30.42 in 10.0 mi North 4.6 mph - N/A   Overcast
10:35 PM 8.6 °F 2.0 °F - N/A% 30.42 in 10.0 mi North 3.5 mph - N/A   Overcast
10:55 PM 8.6 °F 2.0 °F - N/A% 30.43 in 10.0 mi North 3.5 mph - N/A   Overcast
11:15 PM 8.6 °F - - N/A% 30.42 in 10.0 mi Calm Calm - N/A   Overcast
11:35 PM 8.6 °F - - N/A% 30.42 in 10.0 mi Calm Calm - N/A   Overcast
11:55 PM 8.6 °F - - N/A% 30.41 in 10.0 mi Calm Calm - N/A   Overcast